,,,PA_Meas_PMT16A,,PR_Meas_QMR101_102,,RH_Meas_QMH101,,SR_Meas_QMS101,,TA_Meas_QMH101,,GenWind,,GenWind,
date,time,status,PA,status,PR,status,RH,status,SR,status,TA,status,DirAvg,status,SpdAvg,
2011-08-02, 00:00:04,VALID,1005.83,VALID,0,INVALID,163.655,VALID,0.100563,VALID,25.2007,VALID,345,VALID,0,
2011-08-02, 00:01:04,VALID,1005.84,VALID,0,INVALID,163.617,VALID,0,VALID,25.2007,VALID,344,VALID,0,
2011-08-02, 00:02:04,VALID,1005.84,VALID,0,INVALID,163.685,VALID,0.100563,VALID,25.1794,VALID,345,VALID,0,
2011-08-02, 00:03:04,VALID,1005.83,VALID,0,INVALID,163.685,VALID,0.100563,VALID,25.2202,VALID,360,VALID,0,
2011-08-02, 00:04:04,VALID,1005.84,VALID,0,INVALID,163.716,VALID,0.100563,VALID,25.2007,VALID,360,VALID,0,
2011-08-02, 00:05:04,VALID,1005.81,VALID,0,INVALID,163.632,VALID,0.100563,VALID,25.2007,VALID,344,VALID,0,
2011-08-02, 00:06:04,VALID,1005.83,VALID,0,INVALID,163.639,VALID,0.100563,VALID,25.1618,VALID,353,VALID,0,
2011-08-02, 00:07:04,VALID,1005.8,VALID,0,INVALID,163.655,VALID,0.100563,VALID,25.2007,VALID,350,VALID,0,
2011-08-02, 00:08:04,VALID,1005.8,VALID,0,INVALID,163.639,VALID,0.100563,VALID,25.2007,VALID,354,VALID,0,
2011-08-02, 00:09:04,VALID,1005.74,VALID,0,INVALID,163.639,VALID,0,VALID,25.2007,VALID,358,VALID,0,
2011-08-02, 00:10:04,VALID,1005.69,VALID,0,INVALID,163.639,VALID,0.100563,VALID,25.2221,VALID,358,VALID,0,
2011-08-02, 00:11:04,VALID,1005.67,VALID,0,INVALID,163.639,VALID,0.100563,VALID,25.2221,VALID,323,VALID,0,
2011-08-02, 00:12:04,VALID,1005.65,VALID,0,INVALID,163.647,VALID,0.100563,VALID,25.1813,VALID,319,VALID,0,
2011-08-02, 00:13:04,VALID,1005.64,VALID,0,INVALID,163.639,VALID,0.100563,VALID,25.2027,VALID,325,VALID,0,
2011-08-02, 00:14:04,VALID,1005.66,VALID,0,INVALID,163.655,VALID,0,VALID,25.2221,VALID,325,VALID,0,
2011-08-02, 00:15:04,VALID,1005.62,VALID,0,INVALID,163.662,VALID,0,VALID,25.1832,VALID,328,VALID,0,
2011-08-02, 00:16:04,VALID,1005.63,VALID,0,INVALID,163.678,VALID,0,VALID,25.1832,VALID,328,VALID,0,
2011-08-02, 00:17:04,VALID,1005.62,VALID,0,INVALID,163.632,VALID,0,VALID,25.2046,VALID,328,VALID,0,
2011-08-02, 00:18:04,VALID,1005.59,VALID,0,INVALID,163.639,VALID,0,VALID,25.2027,VALID,300,VALID,0,
2011-08-02, 00:19:04,VALID,1005.58,VALID,0,INVALID,163.693,VALID,0,VALID,25.2027,VALID,299,VALID,0,
2011-08-02, 00:20:04,VALID,1005.56,VALID,0,INVALID,163.693,VALID,0,VALID,25.2027,VALID,299,VALID,0,
2011-08-02, 00:21:04,VALID,1005.57,VALID,0,INVALID,163.693,VALID,0,VALID,25.224,VALID,348,VALID,0,
2011-08-02, 00:22:04,VALID,1005.55,VALID,0,INVALID,163.632,VALID,0,VALID,25.2027,VALID,326,VALID,0,
2011-08-02, 00:23:04,VALID,1005.54,VALID,0,INVALID,163.647,VALID,0,VALID,25.2221,VALID,326,VALID,0,
2011-08-02, 00:24:04,VALID,1005.53,VALID,0,INVALID,163.678,VALID,0,VALID,25.2221,VALID,326,VALID,0,
2011-08-02, 00:25:04,VALID,1005.54,VALID,0,INVALID,163.639,VALID,0,VALID,25.224,VALID,326,VALID,0,
2011-08-02, 00:26:04,VALID,1005.52,VALID,0,INVALID,163.632,VALID,0,VALID,25.2027,VALID,326,VALID,0,
2011-08-02, 00:27:04,VALID,1005.48,VALID,0,INVALID,163.632,VALID,0,VALID,25.2027,VALID,347,VALID,0,
2011-08-02, 00:28:04,VALID,1005.47,VALID,0,INVALID,163.693,VALID,0,VALID,25.1832,VALID,2,VALID,0,
2011-08-02, 00:29:04,VALID,1005.45,VALID,0,INVALID,163.662,VALID,0,VALID,25.1832,VALID,341,VALID,0,
2011-08-02, 00:30:04,VALID,1005.44,VALID,0,INVALID,163.723,VALID,0.100563,VALID,25.1813,VALID,337,VALID,0,
2011-08-02, 00:31:04,VALID,1005.44,VALID,0,INVALID,163.708,VALID,0.100563,VALID,25.2007,VALID,312,VALID,0,
2011-08-02, 00:32:04,VALID,1005.39,VALID,0,INVALID,163.639,VALID,0.100563,VALID,25.2007,VALID,299,VALID,0,
2011-08-02, 00:33:04,VALID,1005.41,VALID,0,INVALID,163.647,VALID,0.100563,VALID,25.2007,VALID,305,VALID,0,
2011-08-02, 00:34:04,VALID,1005.43,VALID,0,INVALID,163.639,VALID,0.100563,VALID,25.2007,VALID,347,VALID,0,
2011-08-02, 00:35:04,VALID,1005.41,VALID,0,INVALID,163.67,VALID,0.100563,VALID,25.2221,VALID,353,VALID,0,
2011-08-02, 00:36:04,VALID,1005.44,VALID,0,INVALID,163.639,VALID,0,VALID,25.2202,VALID,360,VALID,0,
2011-08-02, 00:37:04,VALID,1005.42,VALID,0,INVALID,163.632,VALID,0.100563,VALID,25.2592,VALID,2,VALID,0,
2011-08-02, 00:38:04,VALID,1005.43,VALID,0,INVALID,163.617,VALID,0.100563,VALID,25.2806,VALID,2,VALID,0,
2011-08-02, 00:39:04,VALID,1005.44,VALID,0,INVALID,163.716,VALID,0,VALID,25.2592,VALID,2,VALID,0,
2011-08-02, 00:40:04,VALID,1005.46,VALID,0,INVALID,163.701,VALID,0,VALID,25.2397,VALID,2,VALID,0,
2011-08-02, 00:41:04,VALID,1005.46,VALID,0,INVALID,163.647,VALID,0.100563,VALID,25.2007,VALID,2,VALID,0,
2011-08-02, 00:42:04,VALID,1005.42,VALID,0,INVALID,163.655,VALID,0.100563,VALID,25.1832,VALID,2,VALID,0,
2011-08-02, 00:43:04,VALID,1005.43,VALID,0,INVALID,163.655,VALID,0.100563,VALID,25.1637,VALID,2,VALID,0,
2011-08-02, 00:44:04,VALID,1005.4,VALID,0,INVALID,163.655,VALID,0.100563,VALID,25.1034,VALID,2,VALID,0,
2011-08-02, 00:45:04,VALID,1005.41,VALID,0,INVALID,163.647,VALID,0.100563,VALID,25.0644,VALID,2,VALID,0,
2011-08-02, 00:46:04,VALID,1005.42,VALID,0,INVALID,163.647,VALID,0.100563,VALID,25.045,VALID,2,VALID,0,
2011-08-02, 00:47:04,VALID,1005.38,VALID,0,INVALID,163.662,VALID,0.100563,VALID,24.9866,VALID,2,VALID,0,
2011-08-02, 00:48:04,VALID,1005.35,VALID,0,INVALID,163.662,VALID,0.100563,VALID,24.9457,VALID,2,VALID,0,
2011-08-02, 00:49:04,VALID,1005.34,VALID,0,INVALID,163.685,VALID,0.100563,VALID,24.9087,VALID,2,VALID,0,
2011-08-02, 00:50:04,VALID,1005.31,VALID,0,INVALID,163.731,VALID,0.100563,VALID,24.8911,VALID,2,VALID,0,
2011-08-02, 00:51:04,VALID,1005.29,VALID,0,INVALID,163.662,VALID,0.100563,VALID,24.8522,VALID,2,VALID,0,
2011-08-02, 00:52:04,VALID,1005.27,VALID,0,INVALID,163.647,VALID,0,VALID,24.7724,VALID,2,VALID,0,
2011-08-02, 00:53:04,VALID,1005.24,VALID,0,INVALID,163.685,VALID,0.100563,VALID,24.7724,VALID,360,VALID,0,
2011-08-02, 00:54:04,VALID,1005.17,VALID,0,INVALID,163.647,VALID,0,VALID,24.7724,VALID,360,VALID,0,
2011-08-02, 00:55:04,VALID,1005.11,VALID,0,INVALID,163.678,VALID,0.100563,VALID,24.7937,VALID,360,VALID,0,
2011-08-02, 00:56:04,VALID,1005.1,VALID,0,INVALID,163.662,VALID,0,VALID,24.7529,VALID,360,VALID,0,
2011-08-02, 00:57:05,VALID,1005.02,VALID,0,INVALID,163.67,VALID,0.100563,VALID,24.714,VALID,360,VALID,0,
2011-08-02, 00:58:05,VALID,1005.03,VALID,0,INVALID,163.662,VALID,0.100563,VALID,24.6732,VALID,360,VALID,0,
2011-08-02, 00:59:05,VALID,1004.99,VALID,0,INVALID,163.685,VALID,0.100563,VALID,24.7353,VALID,290,VALID,0,
2011-08-02, 01:00:05,VALID,1004.99,VALID,0,INVALID,163.693,VALID,0,VALID,24.7353,VALID,278,VALID,0,
2011-08-02, 01:01:05,VALID,1004.96,VALID,0,INVALID,163.731,VALID,0,VALID,24.7743,VALID,278,VALID,0,
2011-08-02, 01:02:05,VALID,1004.93,VALID,0,INVALID,163.655,VALID,0,VALID,24.7743,VALID,278,VALID,0,
2011-08-02, 01:03:05,VALID,1004.96,VALID,0,INVALID,163.678,VALID,0,VALID,24.7743,VALID,279,VALID,0,
2011-08-02, 01:04:05,VALID,1004.96,VALID,0,INVALID,163.655,VALID,0,VALID,24.7743,VALID,351,VALID,0,
2011-08-02, 01:05:05,VALID,1004.96,VALID,0,INVALID,163.701,VALID,0,VALID,24.7937,VALID,348,VALID,0,
2011-08-02, 01:06:05,VALID,1004.96,VALID,0,INVALID,163.662,VALID,0,VALID,24.7937,VALID,353,VALID,0,
2011-08-02, 01:07:05,VALID,1004.95,VALID,0,INVALID,163.701,VALID,0,VALID,24.8132,VALID,353,VALID,0,
2011-08-02, 01:08:05,VALID,1004.96,VALID,0,INVALID,163.647,VALID,0,VALID,24.8113,VALID,348,VALID,0,
2011-08-02, 01:09:05,VALID,1004.96,VALID,0,INVALID,163.693,VALID,0,VALID,24.8327,VALID,349,VALID,0,
2011-08-02, 01:10:05,VALID,1004.92,VALID,0,INVALID,163.67,VALID,0,VALID,24.8327,VALID,351,VALID,0,
2011-08-02, 01:11:05,VALID,1004.94,VALID,0,INVALID,163.678,VALID,0,VALID,24.8327,VALID,254,VALID,0,
2011-08-02, 01:12:05,VALID,1004.96,VALID,0,INVALID,163.685,VALID,0,VALID,24.8522,VALID,348,VALID,0,
2011-08-02, 01:13:05,VALID,1004.95,VALID,0,INVALID,163.723,VALID,0,VALID,24.8308,VALID,346,VALID,0,
2011-08-02, 01:14:05,VALID,1004.92,VALID,0,INVALID,163.685,VALID,0,VALID,24.8327,VALID,346,VALID,0,
2011-08-02, 01:15:05,VALID,1004.93,VALID,0,INVALID,163.647,VALID,0,VALID,24.8327,VALID,346,VALID,0,
2011-08-02, 01:16:05,VALID,1004.96,VALID,0,INVALID,163.647,VALID,0,VALID,24.8327,VALID,346,VALID,0,
2011-08-02, 01:17:05,VALID,1004.95,VALID,0,INVALID,163.678,VALID,0,VALID,24.8327,VALID,279,VALID,0,
2011-08-02, 01:18:05,VALID,1004.95,VALID,0,INVALID,163.67,VALID,0,VALID,24.8113,VALID,307,VALID,0,
2011-08-02, 01:19:05,VALID,1004.95,VALID,0,INVALID,163.723,VALID,0,VALID,24.8522,VALID,339,VALID,0,
2011-08-02, 01:20:05,VALID,1004.96,VALID,0,INVALID,163.731,VALID,0,VALID,24.8522,VALID,343,VALID,0,
2011-08-02, 01:21:05,VALID,1004.98,VALID,0,INVALID,163.708,VALID,0,VALID,24.8522,VALID,349,VALID,0,
2011-08-02, 01:22:05,VALID,1005,VALID,0,INVALID,163.678,VALID,0,VALID,24.8716,VALID,349,VALID,0,
2011-08-02, 01:23:05,VALID,1005.02,VALID,0,INVALID,163.739,VALID,0,VALID,24.8911,VALID,341,VALID,0,
2011-08-02, 01:24:05,VALID,1005.03,VALID,0,INVALID,163.731,VALID,0,VALID,24.8697,VALID,341,VALID,0,
2011-08-02, 01:25:05,VALID,1005.02,VALID,0,INVALID,163.678,VALID,0,VALID,24.8911,VALID,341,VALID,0,
2011-08-02, 01:26:05,VALID,1005.01,VALID,0,INVALID,163.647,VALID,0,VALID,24.8716,VALID,331,VALID,0,
2011-08-02, 01:27:05,VALID,1005,VALID,0,INVALID,163.639,VALID,0,VALID,24.8911,VALID,296,VALID,0,
2011-08-02, 01:28:05,VALID,1004.98,VALID,0,INVALID,163.655,VALID,0,VALID,24.8911,VALID,310,VALID,0,
2011-08-02, 01:29:05,VALID,1004.99,VALID,0,INVALID,163.708,VALID,0,VALID,24.9106,VALID,308,VALID,0,
2011-08-02, 01:30:05,VALID,1004.97,VALID,0,INVALID,163.67,VALID,0,VALID,24.9106,VALID,343,VALID,0,
2011-08-02, 01:31:05,VALID,1004.98,VALID,0,INVALID,163.67,VALID,0,VALID,24.93,VALID,347,VALID,0,
2011-08-02, 01:32:05,VALID,1004.97,VALID,0,INVALID,163.67,VALID,0,VALID,24.9087,VALID,347,VALID,0,
2011-08-02, 01:33:05,VALID,1004.99,VALID,0,INVALID,163.624,VALID,0,VALID,24.9087,VALID,347,VALID,0,
2011-08-02, 01:34:05,VALID,1004.99,VALID,0,INVALID,163.685,VALID,0,VALID,24.93,VALID,347,VALID,0,
2011-08-02, 01:35:05,VALID,1005.01,VALID,0,INVALID,163.685,VALID,0,VALID,24.9106,VALID,347,VALID,0,
2011-08-02, 01:36:05,VALID,1004.98,VALID,0,INVALID,163.662,VALID,0,VALID,24.9106,VALID,347,VALID,0,
2011-08-02, 01:37:05,VALID,1004.99,VALID,0,INVALID,163.647,VALID,0,VALID,24.9125,VALID,347,VALID,0,
2011-08-02, 01:38:05,VALID,1005,VALID,0,INVALID,163.632,VALID,0,VALID,24.8503,VALID,347,VALID,0,
2011-08-02, 01:39:05,VALID,1004.98,VALID,0,INVALID,163.662,VALID,0,VALID,24.8327,VALID,347,VALID,0,
2011-08-02, 01:40:05,VALID,1004.99,VALID,0,INVALID,163.678,VALID,0,VALID,24.7919,VALID,347,VALID,0,
2011-08-02, 01:41:05,VALID,1004.97,VALID,0,INVALID,163.678,VALID,0,VALID,24.7937,VALID,347,VALID,0,
2011-08-02, 01:42:05,VALID,1004.95,VALID,0,INVALID,163.701,VALID,0,VALID,24.7159,VALID,347,VALID,0,
2011-08-02, 01:43:05,VALID,1004.95,VALID,0,INVALID,163.67,VALID,0,VALID,24.6964,VALID,347,VALID,0,
2011-08-02, 01:44:05,VALID,1004.96,VALID,0,INVALID,163.678,VALID,0,VALID,24.638,VALID,347,VALID,0,
2011-08-02, 01:45:05,VALID,1004.96,VALID,0,INVALID,163.701,VALID,0.100563,VALID,24.5796,VALID,347,VALID,0,
2011-08-02, 01:46:05,VALID,1004.98,VALID,0,INVALID,163.678,VALID,0,VALID,24.5193,VALID,347,VALID,0,
2011-08-02, 01:47:05,VALID,1004.96,VALID,0,INVALID,163.701,VALID,0,VALID,24.5017,VALID,347,VALID,0,
2011-08-02, 01:48:05,VALID,1004.95,VALID,0,INVALID,163.67,VALID,0,VALID,24.4822,VALID,347,VALID,0,
2011-08-02, 01:49:05,VALID,1004.95,VALID,0,INVALID,163.708,VALID,0,VALID,24.4628,VALID,347,VALID,0,
2011-08-02, 01:50:05,VALID,1004.97,VALID,0,INVALID,163.67,VALID,0,VALID,24.4238,VALID,347,VALID,0,
2011-08-02, 01:51:05,VALID,1004.97,VALID,0,INVALID,163.701,VALID,0,VALID,24.4043,VALID,347,VALID,0,
2011-08-02, 01:52:05,VALID,1004.96,VALID,0,INVALID,163.754,VALID,0,VALID,24.3636,VALID,347,VALID,0,
2011-08-02, 01:53:05,VALID,1004.92,VALID,0,INVALID,163.701,VALID,0,VALID,24.3459,VALID,347,VALID,0,
2011-08-02, 01:54:05,VALID,1004.92,VALID,0,INVALID,163.762,VALID,0,VALID,24.3052,VALID,347,VALID,0,
2011-08-02, 01:55:05,VALID,1004.91,VALID,0,INVALID,163.701,VALID,0,VALID,24.3052,VALID,347,VALID,0,
2011-08-02, 01:56:05,VALID,1004.9,VALID,0,INVALID,163.746,VALID,0,VALID,24.3265,VALID,347,VALID,0,
2011-08-02, 01:57:05,VALID,1004.89,VALID,0,INVALID,163.716,VALID,0,VALID,24.307,VALID,347,VALID,0,
2011-08-02, 01:58:05,VALID,1004.9,VALID,0,INVALID,163.731,VALID,0,VALID,24.2662,VALID,347,VALID,0,
2011-08-02, 01:59:05,VALID,1004.89,VALID,0,INVALID,163.701,VALID,0,VALID,24.2875,VALID,347,VALID,0,
2011-08-02, 02:00:05,VALID,1004.87,VALID,0,INVALID,163.723,VALID,0,VALID,24.2681,VALID,347,VALID,0,
2011-08-02, 02:01:05,VALID,1004.88,VALID,0,INVALID,163.731,VALID,0,VALID,24.2291,VALID,347,VALID,0,
2011-08-02, 02:02:05,VALID,1004.85,VALID,0,INVALID,163.723,VALID,0,VALID,24.2097,VALID,347,VALID,0,
2011-08-02, 02:03:05,VALID,1004.84,VALID,0,INVALID,163.716,VALID,0,VALID,24.1902,VALID,347,VALID,0,
2011-08-02, 02:04:05,VALID,1004.81,VALID,0,INVALID,163.723,VALID,0,VALID,24.1494,VALID,347,VALID,0,
2011-08-02, 02:05:05,VALID,1004.79,VALID,0,INVALID,163.731,VALID,0,VALID,24.13,VALID,347,VALID,0,
2011-08-02, 02:06:05,VALID,1004.78,VALID,0,INVALID,163.777,VALID,0,VALID,24.1513,VALID,347,VALID,0,
2011-08-02, 02:07:05,VALID,1004.75,VALID,0,INVALID,163.708,VALID,0,VALID,24.1318,VALID,347,VALID,0,
2011-08-02, 02:08:05,VALID,1004.75,VALID,0,INVALID,163.754,VALID,0,VALID,24.1318,VALID,347,VALID,0,
2011-08-02, 02:09:05,VALID,1004.71,VALID,0,INVALID,163.716,VALID,0,VALID,24.1123,VALID,347,VALID,0,
2011-08-02, 02:10:05,VALID,1004.69,VALID,0,INVALID,163.723,VALID,0,VALID,24.091,VALID,347,VALID,0,
2011-08-02, 02:11:05,VALID,1004.67,VALID,0,INVALID,163.746,VALID,0,VALID,24.0929,VALID,347,VALID,0,
2011-08-02, 02:12:05,VALID,1004.68,VALID,0,INVALID,163.716,VALID,0,VALID,24.0929,VALID,347,VALID,0,
2011-08-02, 02:13:05,VALID,1004.64,VALID,0,INVALID,163.739,VALID,0,VALID,24.0929,VALID,347,VALID,0,
2011-08-02, 02:14:05,VALID,1004.62,VALID,0,INVALID,163.739,VALID,0,VALID,24.0734,VALID,347,VALID,0,
2011-08-02, 02:15:05,VALID,1004.59,VALID,0,INVALID,163.8,VALID,0,VALID,24.1123,VALID,347,VALID,0,
2011-08-02, 02:16:05,VALID,1004.56,VALID,0,INVALID,163.754,VALID,0,VALID,24.0734,VALID,347,VALID,0,
2011-08-02, 02:17:05,VALID,1004.57,VALID,0,INVALID,163.784,VALID,0,VALID,24.0716,VALID,347,VALID,0,
2011-08-02, 02:18:05,VALID,1004.54,VALID,0,INVALID,163.716,VALID,0,VALID,24.0734,VALID,347,VALID,0,
2011-08-02, 02:19:05,VALID,1004.53,VALID,0,INVALID,163.784,VALID,0,VALID,24.0521,VALID,347,VALID,0,
2011-08-02, 02:20:05,VALID,1004.5,VALID,0,INVALID,163.723,VALID,0,VALID,24.0345,VALID,347,VALID,0,
2011-08-02, 02:21:05,VALID,1004.49,VALID,0,INVALID,163.8,VALID,0,VALID,23.9955,VALID,347,VALID,0,
2011-08-02, 02:22:05,VALID,1004.5,VALID,0,INVALID,163.746,VALID,0,VALID,23.9955,VALID,347,VALID,0,
2011-08-02, 02:23:05,VALID,1004.49,VALID,0,INVALID,163.746,VALID,0,VALID,23.9761,VALID,347,VALID,0,
2011-08-02, 02:24:05,VALID,1004.47,VALID,0,INVALID,163.739,VALID,0,VALID,23.9353,VALID,347,VALID,0,
2011-08-02, 02:25:05,VALID,1004.48,VALID,0,INVALID,163.754,VALID,0,VALID,23.9353,VALID,347,VALID,0,
2011-08-02, 02:26:05,VALID,1004.43,VALID,0,INVALID,163.739,VALID,0,VALID,23.9353,VALID,347,VALID,0,
2011-08-02, 02:27:05,VALID,1004.44,VALID,0,INVALID,163.746,VALID,0,VALID,23.9353,VALID,347,VALID,0,
2011-08-02, 02:28:05,VALID,1004.44,VALID,0,INVALID,163.769,VALID,0,VALID,23.9371,VALID,347,VALID,0,
2011-08-02, 02:29:05,VALID,1004.43,VALID,0,INVALID,163.754,VALID,0,VALID,23.9566,VALID,347,VALID,0,
2011-08-02, 02:30:05,VALID,1004.41,VALID,0,INVALID,163.739,VALID,0,VALID,23.9353,VALID,347,VALID,0,
2011-08-02, 02:31:05,VALID,1004.37,VALID,0,INVALID,163.8,VALID,0,VALID,23.9548,VALID,347,VALID,0,
2011-08-02, 02:32:05,VALID,1004.38,VALID,0,INVALID,163.739,VALID,0,VALID,23.9742,VALID,347,VALID,0,
2011-08-02, 02:33:05,VALID,1004.35,VALID,0,INVALID,163.792,VALID,0,VALID,23.9742,VALID,347,VALID,0,
2011-08-02, 02:34:05,VALID,1004.35,VALID,0,INVALID,163.716,VALID,0,VALID,23.9955,VALID,347,VALID,0,
2011-08-02, 02:35:05,VALID,1004.3,VALID,0,INVALID,163.8,VALID,0,VALID,23.9742,VALID,347,VALID,0,
2011-08-02, 02:36:05,VALID,1004.28,VALID,0,INVALID,163.731,VALID,0,VALID,23.9937,VALID,347,VALID,0,
2011-08-02, 02:37:05,VALID,1004.27,VALID,0,INVALID,163.723,VALID,0,VALID,23.9937,VALID,347,VALID,0,
2011-08-02, 02:38:05,VALID,1004.25,VALID,0,INVALID,163.746,VALID,0,VALID,23.9937,VALID,347,VALID,0,
2011-08-02, 02:39:05,VALID,1004.25,VALID,0,INVALID,163.731,VALID,0,VALID,24.015,VALID,347,VALID,0,
2011-08-02, 02:40:05,VALID,1004.21,VALID,0,INVALID,163.723,VALID,0,VALID,24.0132,VALID,347,VALID,0,
2011-08-02, 02:41:05,VALID,1004.2,VALID,0,INVALID,163.746,VALID,0,VALID,24.0539,VALID,347,VALID,0,
2011-08-02, 02:42:05,VALID,1004.19,VALID,0,INVALID,163.723,VALID,0,VALID,24.0326,VALID,337,VALID,0,
2011-08-02, 02:43:05,VALID,1004.17,VALID,0,INVALID,163.739,VALID,0,VALID,24.0521,VALID,330,VALID,0,
2011-08-02, 02:44:05,VALID,1004.2,VALID,0,INVALID,163.731,VALID,0,VALID,24.0716,VALID,330,VALID,0,
2011-08-02, 02:45:05,VALID,1004.17,VALID,0,INVALID,163.731,VALID,0,VALID,24.0929,VALID,330,VALID,0,
2011-08-02, 02:46:05,VALID,1004.17,VALID,0,INVALID,163.739,VALID,0,VALID,24.0716,VALID,330,VALID,0,
2011-08-02, 02:47:05,VALID,1004.19,VALID,0,INVALID,163.731,VALID,0,VALID,24.091,VALID,330,VALID,0,
2011-08-02, 02:48:05,VALID,1004.16,VALID,0,INVALID,163.731,VALID,0,VALID,24.1105,VALID,330,VALID,0,
2011-08-02, 02:49:05,VALID,1004.13,VALID,0,INVALID,163.754,VALID,0,VALID,24.0892,VALID,330,VALID,0,
2011-08-02, 02:50:05,VALID,1004.14,VALID,0,INVALID,163.731,VALID,0,VALID,24.1105,VALID,330,VALID,0,
2011-08-02, 02:51:05,VALID,1004.12,VALID,0,INVALID,163.716,VALID,0,VALID,24.1318,VALID,330,VALID,0,
2011-08-02, 02:52:05,VALID,1004.11,VALID,0,INVALID,163.723,VALID,0,VALID,24.1105,VALID,330,VALID,0,
2011-08-02, 02:53:05,VALID,1004.12,VALID,0,INVALID,163.746,VALID,0,VALID,24.1318,VALID,336,VALID,0,
2011-08-02, 02:54:05,VALID,1004.1,VALID,0,INVALID,163.739,VALID,0,VALID,24.1105,VALID,356,VALID,0,
2011-08-02, 02:55:05,VALID,1004.13,VALID,0,INVALID,163.731,VALID,0,VALID,24.091,VALID,356,VALID,0,
2011-08-02, 02:56:05,VALID,1004.11,VALID,0,INVALID,163.723,VALID,0,VALID,24.091,VALID,356,VALID,0,
2011-08-02, 02:57:05,VALID,1004.12,VALID,0,INVALID,163.731,VALID,0,VALID,24.1123,VALID,356,VALID,0,
2011-08-02, 02:58:05,VALID,1004.11,VALID,0,INVALID,163.708,VALID,0,VALID,24.091,VALID,356,VALID,0,
2011-08-02, 02:59:05,VALID,1004.09,VALID,0,INVALID,163.739,VALID,0,VALID,24.0521,VALID,356,VALID,0,
2011-08-02, 03:00:05,VALID,1004.06,VALID,0,INVALID,163.739,VALID,0,VALID,24.0929,VALID,356,VALID,0,
2011-08-02, 03:01:05,VALID,1004.05,VALID,0,INVALID,163.777,VALID,0,VALID,24.0521,VALID,356,VALID,0,
2011-08-02, 03:02:05,VALID,1004.06,VALID,0,INVALID,163.716,VALID,0,VALID,24.0521,VALID,356,VALID,0,
2011-08-02, 03:03:05,VALID,1004.02,VALID,0,INVALID,163.739,VALID,0,VALID,24.0132,VALID,356,VALID,0,
2011-08-02, 03:04:05,VALID,1004.01,VALID,0,INVALID,163.723,VALID,0.100563,VALID,24.0539,VALID,356,VALID,0,
2011-08-02, 03:05:05,VALID,1004.02,VALID,0,INVALID,163.815,VALID,0,VALID,24.0132,VALID,356,VALID,0,
2011-08-02, 03:06:05,VALID,1004.02,VALID,0,INVALID,163.708,VALID,0,VALID,24.0132,VALID,356,VALID,0,
2011-08-02, 03:07:05,VALID,1003.99,VALID,0,INVALID,163.746,VALID,0,VALID,24.0345,VALID,356,VALID,0,
2011-08-02, 03:08:05,VALID,1003.98,VALID,0,INVALID,163.716,VALID,0,VALID,23.9937,VALID,356,VALID,0,
2011-08-02, 03:09:05,VALID,1004.01,VALID,0,INVALID,163.762,VALID,0,VALID,24.0557,VALID,356,VALID,0,
2011-08-02, 03:10:05,VALID,1003.99,VALID,0,INVALID,163.792,VALID,0.100563,VALID,24.0345,VALID,356,VALID,0,
2011-08-02, 03:11:05,VALID,1004.03,VALID,0,INVALID,163.701,VALID,0,VALID,24.0345,VALID,356,VALID,0,
2011-08-02, 03:12:05,VALID,1004.03,VALID,0,INVALID,163.739,VALID,0,VALID,24.0132,VALID,356,VALID,0,
2011-08-02, 03:13:05,VALID,1004.04,VALID,0,INVALID,163.762,VALID,0,VALID,24.0326,VALID,356,VALID,0,
2011-08-02, 03:14:05,VALID,1004.02,VALID,0,INVALID,163.723,VALID,0,VALID,24.0132,VALID,356,VALID,0,
2011-08-02, 03:15:05,VALID,1004.05,VALID,0,INVALID,163.731,VALID,0,VALID,24.0132,VALID,356,VALID,0,
2011-08-02, 03:16:05,VALID,1004.07,VALID,0,INVALID,163.723,VALID,0,VALID,24.0345,VALID,356,VALID,0,
2011-08-02, 03:17:05,VALID,1004.06,VALID,0,INVALID,163.746,VALID,0,VALID,23.9919,VALID,356,VALID,0,
2011-08-02, 03:18:05,VALID,1004.05,VALID,0,INVALID,163.739,VALID,0.100563,VALID,24.0326,VALID,356,VALID,0,
2011-08-02, 03:19:05,VALID,1004.06,VALID,0,INVALID,163.716,VALID,0,VALID,24.0326,VALID,356,VALID,0,
2011-08-02, 03:20:05,VALID,1004.06,VALID,0,INVALID,163.723,VALID,0,VALID,24.0539,VALID,356,VALID,0,
2011-08-02, 03:21:05,VALID,1004.01,VALID,0,INVALID,163.739,VALID,0,VALID,24.0521,VALID,356,VALID,0,
2011-08-02, 03:22:05,VALID,1004.01,VALID,0,INVALID,163.716,VALID,0,VALID,24.0521,VALID,356,VALID,0,
2011-08-02, 03:23:05,VALID,1003.99,VALID,0,INVALID,163.716,VALID,0,VALID,24.0734,VALID,356,VALID,0,
2011-08-02, 03:24:05,VALID,1003.97,VALID,0,INVALID,163.754,VALID,0,VALID,24.0716,VALID,356,VALID,0,
2011-08-02, 03:25:05,VALID,1003.96,VALID,0,INVALID,163.739,VALID,0,VALID,24.0947,VALID,356,VALID,0,
2011-08-02, 03:26:05,VALID,1003.96,VALID,0,INVALID,163.723,VALID,0,VALID,24.0929,VALID,356,VALID,0,
2011-08-02, 03:27:05,VALID,1003.97,VALID,0,INVALID,163.762,VALID,0,VALID,24.0521,VALID,356,VALID,0,
2011-08-02, 03:28:05,VALID,1003.97,VALID,0,INVALID,163.723,VALID,0,VALID,24.0716,VALID,356,VALID,0,
2011-08-02, 03:29:05,VALID,1003.93,VALID,0,INVALID,163.708,VALID,0,VALID,24.0716,VALID,356,VALID,0,
2011-08-02, 03:30:05,VALID,1003.97,VALID,0,INVALID,163.754,VALID,0,VALID,24.0716,VALID,356,VALID,0,
2011-08-02, 03:31:04,VALID,1003.96,VALID,0,INVALID,163.739,VALID,0,VALID,24.0734,VALID,356,VALID,0,
2011-08-02, 03:32:04,VALID,1003.98,VALID,0,INVALID,163.723,VALID,0,VALID,24.0734,VALID,356,VALID,0,
2011-08-02, 03:33:04,VALID,1003.97,VALID,0,INVALID,163.716,VALID,0,VALID,24.0521,VALID,356,VALID,0,
2011-08-02, 03:34:04,VALID,1003.99,VALID,0,INVALID,163.739,VALID,0,VALID,24.0521,VALID,356,VALID,0,
2011-08-02, 03:35:04,VALID,1003.98,VALID,0,INVALID,163.723,VALID,0,VALID,24.0521,VALID,356,VALID,0,
2011-08-02, 03:36:04,VALID,1003.97,VALID,0,INVALID,163.739,VALID,0.100563,VALID,24.0114,VALID,356,VALID,0,
2011-08-02, 03:37:04,VALID,1003.97,VALID,0,INVALID,163.723,VALID,0,VALID,24.0345,VALID,356,VALID,0,
2011-08-02, 03:38:04,VALID,1003.96,VALID,0,INVALID,163.746,VALID,0,VALID,24.0345,VALID,356,VALID,0,
2011-08-02, 03:39:04,VALID,1003.93,VALID,0,INVALID,163.731,VALID,0,VALID,24.015,VALID,356,VALID,0,
2011-08-02, 03:40:04,VALID,1003.96,VALID,0,INVALID,163.746,VALID,0.100563,VALID,23.9937,VALID,356,VALID,0,
2011-08-02, 03:41:04,VALID,1003.97,VALID,0,INVALID,163.777,VALID,0,VALID,23.9937,VALID,356,VALID,0,
2011-08-02, 03:42:04,VALID,1003.96,VALID,0,INVALID,163.746,VALID,0,VALID,23.9955,VALID,356,VALID,0,
2011-08-02, 03:43:04,VALID,1003.95,VALID,0,INVALID,163.723,VALID,0,VALID,23.9742,VALID,356,VALID,0,
2011-08-02, 03:44:04,VALID,1003.97,VALID,0,INVALID,163.739,VALID,0,VALID,23.9937,VALID,356,VALID,0,
2011-08-02, 03:45:04,VALID,1003.98,VALID,0,INVALID,163.731,VALID,0,VALID,23.9937,VALID,356,VALID,0,
2011-08-02, 03:46:04,VALID,1003.97,VALID,0,INVALID,163.716,VALID,0,VALID,24.0345,VALID,355,VALID,0,
2011-08-02, 03:47:04,VALID,1004,VALID,0,INVALID,163.8,VALID,0.100563,VALID,24.0539,VALID,355,VALID,0,
2011-08-02, 03:48:04,VALID,1004,VALID,0,INVALID,163.762,VALID,0,VALID,24.0326,VALID,355,VALID,0,
2011-08-02, 03:49:04,VALID,1004.03,VALID,0,INVALID,163.746,VALID,0.100563,VALID,24.0326,VALID,355,VALID,0,
2011-08-02, 03:50:04,VALID,1004.03,VALID,0,INVALID,163.754,VALID,0.100563,VALID,24.0734,VALID,355,VALID,0,
2011-08-02, 03:51:04,VALID,1004.04,VALID,0,INVALID,163.784,VALID,0,VALID,24.0734,VALID,355,VALID,0,
2011-08-02, 03:52:04,VALID,1004.07,VALID,0,INVALID,163.723,VALID,0,VALID,24.0716,VALID,355,VALID,0,